When you browse on this site, cookies collect data to enhance your experience and personalize the content and advertising you see.
Visit our Privacy Policy to learn more. By continuing to use the site, you agree to this use of cookies and data.
  • In Czech Republic
  • List of Countries
  • For 7 days
  • Water Temperature
  • Satellite Maps
  • Weather Map
  • Weather Widgets
  • user-avatar
    Login

    Hourly Weather Parakou

    Today, 22 January, Tuesday

    Time Temperature Precipitation Wind Pressure Humidity
    00:00 +30°C° 0 mm 1 mps 728 mmHg 19%
    01:00 +29°C° 0 mm 1 mps 728 mmHg 19%
    02:00 +28°C° 0 mm 2 mps 727 mmHg 19%
    03:00 +28°C° 0 mm 2 mps 727 mmHg 19%
    04:00 +27°C° 0 mm 1 mps 727 mmHg 18%
    05:00 +27°C° 0 mm 1 mps 728 mmHg 17%
    06:00 +24°C° 0 mm 0 mps 728 mmHg 16%
    07:00 +28°C° 0 mm 1 mps 728 mmHg 14%
    08:00 +31°C° 0 mm 1 mps 729 mmHg 11%
    09:00 +33°C° 0 mm 1 mps 729 mmHg 9%
    10:00 +35°C° 0 mm 1 mps 729 mmHg 8%
    11:00 +39°C° 0 mm 1 mps 729 mmHg 8%
    12:00 +41°C° 0 mm 1 mps 728 mmHg 8%
    13:00 +41°C° 0 mm 1 mps 728 mmHg 8%
    14:00 +42°C° 0 mm 1 mps 727 mmHg 8%
    15:00 +42°C° 0 mm 1 mps 726 mmHg 8%
    16:00 +40°C° 0 mm 1 mps 726 mmHg 9%
    17:00 +35°C° 0 mm 0 mps 726 mmHg 10%
    18:00 +33°C° 0 mm 0 mps 726 mmHg 11%
    19:00 +33°C° 0 mm 0 mps 726 mmHg 12%
    20:00 +32°C° 0 mm 0 mps 727 mmHg 13%
    21:00 +31°C° 0 mm 0 mps 727 mmHg 13%
    22:00 +32°C° 0 mm 1 mps 727 mmHg 14%
    23:00 +31°C° 0 mm 1 mps 727 mmHg 14%

    Tomorrow, 23 January, Wednesday

    Time Temperature Precipitation Wind Pressure Humidity
    00:00 +31°C° 0 mm 1 mps 727 mmHg 15%
    01:00 +30°C° 0 mm 1 mps 727 mmHg 15%
    02:00 +29°C° 0 mm 1 mps 727 mmHg 16%
    03:00 +28°C° 0 mm 1 mps 727 mmHg 16%
    04:00 +27°C° 0 mm 1 mps 727 mmHg 16%
    05:00 +27°C° 0 mm 1 mps 727 mmHg 16%
    06:00 +24°C° 0 mm 0 mps 727 mmHg 17%
    07:00 +28°C° 0 mm 1 mps 728 mmHg 13%
    08:00 +30°C° 0 mm 2 mps 729 mmHg 10%
    09:00 +32°C° 0 mm 2 mps 729 mmHg 7%
    10:00 +35°C° 0 mm 2 mps 729 mmHg 6%
    11:00 +37°C° 0 mm 2 mps 728 mmHg 5%
    12:00 +39°C° 0 mm 2 mps 728 mmHg 5%
    13:00 +40°C° 0 mm 1 mps 727 mmHg 5%
    14:00 +41°C° 0 mm 1 mps 726 mmHg 5%
    15:00 +39°C° 0 mm 0 mps 726 mmHg 5%
    16:00 +37°C° 0 mm 0 mps 725 mmHg 6%
    17:00 +35°C° 0 mm 0 mps 725 mmHg 7%
    18:00 +32°C° 0 mm 0 mps 725 mmHg 8%
    19:00 +34°C° 0 mm 1 mps 726 mmHg 8%
    20:00 +33°C° 0 mm 1 mps 726 mmHg 8%
    21:00 +32°C° 0 mm 1 mps 727 mmHg 9%
    22:00 +31°C° 0 mm 1 mps 727 mmHg 9%
    23:00 +30°C° 0 mm 1 mps 727 mmHg 9%

    Day after tomorrow, 24 January, Thursday

    Time Temperature Precipitation Wind Pressure Humidity
    00:00 +29°C° 0 mm 1 mps 727 mmHg 9%
    01:00 +29°C° 0 mm 1 mps 727 mmHg 13%
    02:00 +28°C° 0 mm 1 mps 726 mmHg 17%
    03:00 +27°C° 0 mm 1 mps 726 mmHg 21%
    04:00 +25°C° 0 mm 0 mps 726 mmHg 25%
    05:00 +24°C° 0 mm 0 mps 726 mmHg 30%
    06:00 +24°C° 0 mm 0 mps 727 mmHg 34%
    07:00 +26°C° 0 mm 0 mps 727 mmHg 36%
    08:00 +28°C° 0 mm 0 mps 728 mmHg 38%
    09:00 +32°C° 0 mm 1 mps 729 mmHg 40%
    10:00 +33°C° 0 mm 0 mps 728 mmHg 34%
    11:00 +35°C° 0 mm 0 mps 728 mmHg 27%
    12:00 +38°C° 0 mm 0 mps 727 mmHg 21%
    13:00 +40°C° 0 mm 1 mps 726 mmHg 21%
    14:00 +40°C° 0 mm 1 mps 726 mmHg 21%
    15:00 +40°C° 0 mm 1 mps 725 mmHg 22%
    16:00 +39°C° 0 mm 1 mps 725 mmHg 24%
    17:00 +37°C° 0 mm 1 mps 725 mmHg 25%
    18:00 +36°C° 0 mm 1 mps 725 mmHg 27%
    19:00 +35°C° 0 mm 1 mps 726 mmHg 29%
    20:00 +34°C° 0 mm 1 mps 726 mmHg 31%
    21:00 +33°C° 0 mm 1 mps 727 mmHg 33%
    22:00 +33°C° 0 mm 1 mps 727 mmHg 32%
    23:00 +32°C° 0 mm 1 mps 727 mmHg 30%

    25 January, Friday

    Time Temperature Precipitation Wind Pressure Humidity
    00:00 +31°C° 0 mm 1 mps 727 mmHg 29%
    01:00 +31°C° 0 mm 1 mps 726 mmHg 28%
    02:00 +30°C° 0 mm 1 mps 726 mmHg 28%
    03:00 +29°C° 0 mm 1 mps 726 mmHg 27%
    04:00 +28°C° 0 mm 1 mps 726 mmHg 37%
    05:00 +28°C° 0 mm 1 mps 726 mmHg 46%
    06:00 +27°C° 0 mm 1 mps 727 mmHg 55%
    07:00 +29°C° 0 mm 1 mps 727 mmHg 54%
    08:00 +30°C° 0 mm 2 mps 728 mmHg 53%
    09:00 +32°C° 0 mm 2 mps 729 mmHg 52%
    10:00 +35°C° 0 mm 1 mps 728 mmHg 40%
    11:00 +39°C° 0 mm 1 mps 728 mmHg 29%
    12:00 +39°C° 0 mm 0 mps 728 mmHg 17%
    13:00 +42°C° 0 mm 1 mps 727 mmHg 15%
    14:00 +41°C° 0 mm 1 mps 726 mmHg 13%
    15:00 +41°C° 0 mm 1 mps 725 mmHg 12%
    16:00 +40°C° 0 mm 1 mps 725 mmHg 11%
    17:00 +37°C° 0 mm 1 mps 725 mmHg 11%
    18:00 +36°C° 0 mm 1 mps 725 mmHg 11%
    19:00 +35°C° 0 mm 1 mps 726 mmHg 10%
    20:00 +34°C° 0 mm 1 mps 727 mmHg 9%
    21:00 +34°C° 0 mm 2 mps 727 mmHg 9%
    22:00 +32°C° 0 mm 1 mps 727 mmHg 9%
    23:00 +31°C° 0 mm 1 mps 727 mmHg 9%

    26 January, Saturday

    Time Temperature Precipitation Wind Pressure Humidity
    00:00 +30°C° 0 mm 1 mps 727 mmHg 10%
    01:00 +29°C° 0 mm 1 mps 727 mmHg 11%
    02:00 +29°C° 0 mm 1 mps 726 mmHg 12%
    03:00 +28°C° 0 mm 1 mps 726 mmHg 13%
    04:00 +25°C° 0 mm 0 mps 726 mmHg 20%
    05:00 +25°C° 0 mm 0 mps 727 mmHg 28%
    06:00 +24°C° 0 mm 0 mps 727 mmHg 36%
    07:00 +27°C° 0 mm 0 mps 728 mmHg 36%
    08:00 +29°C° 0 mm 0 mps 728 mmHg 37%
    09:00 +31°C° 0 mm 0 mps 729 mmHg 37%
    10:00 +34°C° 0 mm 0 mps 729 mmHg 29%
    11:00 +36°C° 0 mm 0 mps 728 mmHg 21%
    12:00 +39°C° 0 mm 0 mps 728 mmHg 13%
    13:00 +39°C° 0 mm 0 mps 727 mmHg 12%
    14:00 +40°C° 0 mm 0 mps 726 mmHg 11%
    15:00 +40°C° 0 mm 0 mps 725 mmHg 10%
    16:00 +38°C° 0 mm 0 mps 725 mmHg 11%
    17:00 +36°C° 0 mm 0 mps 726 mmHg 11%
    18:00 +36°C° 0 mm 1 mps 726 mmHg 12%
    19:00 +35°C° 0 mm 1 mps 726 mmHg 12%
    20:00 +34°C° 0 mm 1 mps 727 mmHg 11%
    21:00 +33°C° 0 mm 1 mps 727 mmHg 11%
    22:00 +32°C° 0 mm 1 mps 727 mmHg 10%
    23:00 +31°C° 0 mm 1 mps 727 mmHg 10%

    27 January, Sunday

    Time Temperature Precipitation Wind Pressure Humidity
    00:00 +30°C° 0 mm 1 mps 727 mmHg 10%
    01:00 +30°C° 0 mm 1 mps 726 mmHg 16%
    02:00 +29°C° 0 mm 1 mps 726 mmHg 22%
    03:00 +28°C° 0 mm 1 mps 726 mmHg 29%
    04:00 +28°C° 0 mm 1 mps 726 mmHg 39%
    05:00 +28°C° 0 mm 1 mps 727 mmHg 50%
    06:00 +27°C° 0 mm 1 mps 727 mmHg 60%
    07:00 +29°C° 0 mm 1 mps 727 mmHg 59%
    08:00 +30°C° 0 mm 1 mps 728 mmHg 57%
    09:00 +32°C° 0 mm 2 mps 728 mmHg 56%
    10:00 +35°C° 0 mm 2 mps 728 mmHg 45%
    11:00 +36°C° 0 mm 1 mps 727 mmHg 35%
    12:00 +40°C° 0 mm 1 mps 727 mmHg 24%
    13:00 +40°C° 0 mm 1 mps 726 mmHg 22%
    14:00 +40°C° 0 mm 1 mps 725 mmHg 20%
    15:00 +41°C° 0 mm 1 mps 724 mmHg 18%
    16:00 +40°C° 0 mm 1 mps 724 mmHg 19%
    17:00 +37°C° 0 mm 1 mps 724 mmHg 20%
    18:00 +36°C° 0 mm 1 mps 724 mmHg 21%
    19:00 +35°C° 0 mm 1 mps 725 mmHg 22%
    20:00 +34°C° 0 mm 1 mps 726 mmHg 24%
    21:00 +33°C° 0 mm 1 mps 726 mmHg 25%
    22:00 +32°C° 0 mm 1 mps 726 mmHg 26%
    23:00 +32°C° 0 mm 1 mps 726 mmHg 27%
    Show more